TimeCDT,TemperatureF,Dew PointF,Humidity,Sea Level PressureIn,VisibilityMPH,Wind Direction,Wind SpeedMPH,Gust SpeedMPH,PrecipitationIn,Events,Conditions,WindDirDegrees,DateUTC
12:49 AM,33.8,32.0,93,29.88,4.0,North,10.4,-,0.03,Snow,Light Snow,350,2013-05-04 05:49:00
12:53 AM,34.0,32.0,92,29.90,6.0,North,10.4,-,0.03,Snow,Light Snow,350,2013-05-04 05:53:00
1:25 AM,33.8,33.8,100,29.88,6.0,North,10.4,-,0.00,Rain,Light Rain,350,2013-05-04 06:25:00
1:49 AM,33.8,32.0,93,29.87,1.8,NNW,5.8,-,0.00,Snow,Light Snow,330,2013-05-04 06:49:00
1:50 AM,33.1,32.0,96,29.89,1.5,NNW,5.8,-,0.00,Snow,Light Snow,330,2013-05-04 06:50:00
2:05 AM,33.8,32.0,93,29.86,2.5,NNW,8.1,-,0.01,Snow,Light Snow,340,2013-05-04 07:05:00
2:17 AM,33.8,30.2,87,29.86,4.0,NNW,8.1,-,0.01,Snow,Light Snow,340,2013-05-04 07:17:00
2:30 AM,33.8,32.0,93,29.85,5.0,NNW,9.2,-,0.02,Snow,Light Snow,340,2013-05-04 07:30:00
2:43 AM,33.8,30.2,87,29.85,3.0,NNW,6.9,-,0.02,Snow,Light Snow,340,2013-05-04 07:43:00
2:53 AM,33.1,30.9,92,29.87,4.0,NW,8.1,-,0.03,,Overcast,320,2013-05-04 07:53:00
3:28 AM,33.8,32.0,93,29.84,2.5,NNW,9.2,-,0.01,Snow,Light Snow,330,2013-05-04 08:28:00
3:53 AM,33.1,32.0,96,29.86,3.0,NNW,6.9,-,0.02,,Overcast,330,2013-05-04 08:53:00
4:01 AM,33.8,32.0,93,29.84,2.5,NNW,5.8,-,N/A,,Overcast,330,2013-05-04 09:01:00
4:53 AM,33.1,32.0,96,29.85,3.0,North,10.4,-,0.03,Snow,Light Snow,350,2013-05-04 09:53:00
5:53 AM,35.1,33.1,92,29.85,5.0,North,9.2,-,0.03,,Overcast,350,2013-05-04 10:53:00
6:45 AM,35.6,33.8,93,29.84,2.5,North,8.1,-,N/A,,Overcast,350,2013-05-04 11:45:00
6:53 AM,35.1,33.1,92,29.86,3.0,North,9.2,-,N/A,,Overcast,350,2013-05-04 11:53:00
7:53 AM,36.0,34.0,93,29.87,2.5,North,11.5,-,N/A,,Overcast,360,2013-05-04 12:53:00
8:27 AM,37.4,35.6,93,29.85,1.5,North,10.4,-,N/A,,Overcast,10,2013-05-04 13:27:00
8:53 AM,37.0,36.0,96,29.88,1.2,North,10.4,-,N/A,,Overcast,10,2013-05-04 13:53:00
9:34 AM,37.4,37.4,100,29.87,1.5,NNE,9.2,-,N/A,,Overcast,30,2013-05-04 14:34:00
9:53 AM,39.0,37.0,93,29.90,1.8,NNE,8.1,-,N/A,,Overcast,20,2013-05-04 14:53:00
10:10 AM,39.2,37.4,93,29.89,2.5,NNE,11.5,-,N/A,,Overcast,20,2013-05-04 15:10:00
10:26 AM,39.2,37.4,93,29.90,3.0,NNE,10.4,-,N/A,,Overcast,30,2013-05-04 15:26:00
10:33 AM,39.2,37.4,93,29.90,2.5,NNE,8.1,-,N/A,,Overcast,20,2013-05-04 15:33:00
10:53 AM,39.9,37.9,93,29.92,5.0,North,9.2,-,N/A,,Overcast,10,2013-05-04 15:53:00
11:53 AM,42.1,39.0,89,29.93,10.0,NNE,9.2,-,0.00,,Overcast,30,2013-05-04 16:53:00
12:53 PM,43.0,39.0,86,29.94,10.0,NNE,9.2,-,N/A,,Overcast,20,2013-05-04 17:53:00
1:04 PM,42.8,37.4,81,29.92,10.0,NE,9.2,-,N/A,,Overcast,50,2013-05-04 18:04:00
1:49 PM,44.6,39.2,81,29.93,10.0,ENE,9.2,-,N/A,,Overcast,60,2013-05-04 18:49:00
1:53 PM,45.0,39.0,80,29.95,10.0,ENE,9.2,-,N/A,,Overcast,70,2013-05-04 18:53:00
2:53 PM,46.0,37.9,73,29.96,10.0,ENE,9.2,-,N/A,,Overcast,60,2013-05-04 19:53:00
3:53 PM,46.9,37.9,71,29.96,10.0,NE,8.1,-,N/A,,Overcast,50,2013-05-04 20:53:00
4:53 PM,46.0,37.9,73,29.97,10.0,ESE,5.8,-,N/A,,Overcast,110,2013-05-04 21:53:00
5:53 PM,46.0,37.9,73,29.99,10.0,ESE,5.8,-,N/A,,Overcast,110,2013-05-04 22:53:00
6:53 PM,46.0,37.9,73,30.01,10.0,ENE,4.6,-,N/A,,Overcast,70,2013-05-04 23:53:00
7:53 PM,45.0,39.0,80,30.02,10.0,South,3.5,-,0.00,Rain,Light Rain,180,2013-05-05 00:53:00
8:53 PM,44.1,39.0,82,30.02,10.0,Calm,Calm,-,0.00,,Overcast,0,2013-05-05 01:53:00
9:53 PM,44.1,39.9,85,30.04,9.0,Calm,Calm,-,N/A,,Overcast,0,2013-05-05 02:53:00
10:07 PM,44.6,39.2,81,30.03,10.0,Calm,Calm,-,N/A,,Overcast,0,2013-05-05 03:07:00
10:53 PM,43.0,41.0,93,30.04,5.0,Calm,Calm,-,N/A,,Overcast,0,2013-05-05 03:53:00
11:06 PM,42.8,41.0,93,30.02,2.0,WSW,3.5,-,0.01,Rain,Light Rain,250,2013-05-05 04:06:00
11:18 PM,42.8,41.0,93,30.02,3.0,WSW,3.5,-,0.01,,Overcast,240,2013-05-05 04:18:00
11:37 PM,42.8,42.8,100,30.02,2.0,Calm,Calm,-,0.01,,Overcast,0,2013-05-05 04:37:00
11:44 PM,42.8,42.8,100,30.02,1.8,Calm,Calm,-,0.01,,Overcast,0,2013-05-05 04:44:00
11:53 PM,43.0,42.1,97,30.03,1.8,Calm,Calm,-,0.01,,Overcast,0,2013-05-05 04:53:00